Weather in Zghurivka

Ukraine / Kyiv Region     50˚29′53″N   31˚46′26″E
temp.,
°C
wind,
m/s
gust,
m/s
humid.,
%
clouds,
%
prec.,
mm/h
press.,
hPa
HPBL,
m
1 december, tue
tue123:00−1˚n3591100 0.4 1027312
02:00−1˚n4794100 1.3 1027399
05:00−1˚n5896100 0.9 1027421
08:00−1˚nne5995100 1.4 1027428
11:00nne5894100 0.4 1027412
14:00ne4797100 0.8 1027290
17:00+1˚ene4798100 0.1 1027374
20:00ene4898100 0.2 1028433
2 december, wed
wed223:00e4897100 0.3 1028450
02:00e4797100 0.7 1028381
05:00−1˚e4898100 0.6 1027362
08:00−1˚e4797100 0.9 1028351
11:00−1˚e469399 0.2 1028431
14:00−1˚e469499 0.3 1027430
17:00−1˚e3797100 0.3 1027354
20:00−2˚ese379797 0.4 1027288
3 december, thu
thu323:00−2˚e369889 0.1 1027219
02:00−1˚ese469793 0.3 1027329
05:00−2˚e469798 0.2 1026197
08:00−3˚e469790 0.2 1026165
11:00ese359784 0.0 1025195
14:00+1˚e359892 0.0 1025158
17:00+1˚ese3799100 0.0 1024241
20:00+1˚se4799100 0.0 1025233
4 december, fri
fri423:00+1˚sse4698100 0.0 1024286
02:00+1˚se3696100 0.0 1024209
05:00ese599471 0.0 1023206
08:00+1˚se6119681 0.0 1024272
11:00+2˚se6119778 0.0 1024399
14:00+2˚ese6109684 0.0 1023481
17:00+2˚se61191100 0.0 1023567
20:00+2˚se61294100 0.0 1023482
5 december, sat
sat523:00+3˚se61392100 0.0 1023512
02:00+2˚se61292100 0.0 1024501
05:00+2˚se7129097 0.0 1023545
08:00+2˚se7129199 0.0 1024606
11:00+2˚se81288100 0.0 1025600
14:00+3˚se71184100 0.0 1025519
17:00+2˚se7138394 0.0 1025442
20:00+1˚se7148567 0.0 1026450